Notices

What's New in latest Release from April 7th, 2021:

- Updated Glossary, including Speed of Maximum Gust, and Total Hourly Precipitation

- Updated national and regional climate services offices contacts and prices information

- Addition of station inventory lists for 1981-2010, 1971-2000, and 1961-1990 Normals.

If you haven't already, please take our survey and provide feedback about our website: https://eccc.sondage-survey.ca/f/LanguageSelection.aspx?s=442ca660-fcf1-47c0-95a9-59707d6fd709

Hourly Data Report for August 21, 2003

TORONTO CITY
ONTARIO

43°40'00.000" N
79°24'00.000" W
112.50 m
6158355
71508
XTO

Download Data

Hourly Data (August 2003)
Hourly Data Report for August 21, 2003
TIME
LST
Temp Definition
°C
Dew Point Definition
°C
Rel Hum Definition
%
Precip. Amount Definition
mm

Wind Dir Definition
10's deg

Wind Spd Definition
km/h
Visibility Definition
km
Stn Press Definition
kPa
Hmdx Definition


Wind Chill Definition


Weather Definition


00:00 22.4 19.6 84   LegendMM LegendMM LegendMM 100.29 30   LegendNANA
01:00 22.4 17.2 72   LegendMM LegendMM LegendMM 100.31 28   LegendNANA
02:00 20.9 16.8 77   LegendMM LegendMM LegendMM 100.31 26   LegendNANA
03:00 20.2 16.8 81   LegendMM LegendMM LegendMM 100.28 25   LegendNANA
04:00 19.8 16.9 83   LegendMM LegendMM LegendMM 100.24     LegendNANA
05:00 19.5 17.1 86   LegendMM LegendMM LegendMM 100.23     LegendNANA
06:00 19.7 17.5 87   LegendMM LegendMM LegendMM 100.21     LegendNANA
07:00 21.4 18.7 85   LegendMM LegendMM LegendMM 100.16 28   LegendNANA
08:00 23.5 19.1 76   LegendMM LegendMM LegendMM 100.16 30   LegendNANA
09:00 24.7 20.2 76   LegendMM LegendMM LegendMM 100.12 32   LegendNANA
10:00 27.2 20.9 69   LegendMM LegendMM LegendMM 100.11 36   LegendNANA
11:00 28.1 21.2 66   LegendMM LegendMM LegendMM 100.04 37   LegendNANA
12:00 29.0 20.6 61   LegendMM LegendMM LegendMM 100.00 37   LegendNANA
13:00 30.7 20.6 55   LegendMM LegendMM LegendMM 99.86 39   LegendNANA
14:00 31.0 20.4 53   LegendMM LegendMM LegendMM 99.75 39   LegendNANA
15:00 31.5 21.4 55   LegendMM LegendMM LegendMM 99.70 40   LegendNANA
16:00 29.0 22.3 67   LegendMM LegendMM LegendMM 99.65 39   LegendNANA
17:00 28.3 20.4 62   LegendMM LegendMM LegendMM 99.58 36   LegendNANA
18:00 28.6 19.6 58   LegendMM LegendMM LegendMM 99.55 36   LegendNANA
19:00 27.4 19.3 61   LegendMM LegendMM LegendMM 99.44 34   LegendNANA
20:00 26.4 20.6 70   LegendMM LegendMM LegendMM 99.42 34   LegendNANA
21:00 26.3 20.6 71   LegendMM LegendMM LegendMM 99.51 34   LegendNANA
22:00 20.9 18.0 83   LegendMM LegendMM LegendMM 99.78 27   LegendNANA
23:00 20.0 19.3 96   LegendMM LegendMM LegendMM 99.65 27   LegendNANA

Notes on Data Quality.

Legend

  • E = Estimated
  • M = Missing
  • NA = Not Available*
  • [empty] = Indicates an unobserved value
Date modified: